Theta_e
312 311 313 312 314 300 308 308 303 306 312 308 303 304 304 304 302 299 309 306 312 320 321 322 323 324 324 327 329 330 331 333 336 335 336 336 337 338 336 336 337 340 342 342 343 344 345 346 344 344 348 350 352 355 354 356 358 357 357 360 357 359 360
312 315 314 314 314 314 311 304 307 313 314 311 305 297 301 299 296 300 306 303 305 307 304 321 321 322 324 325 326 328 330 332 332 335 337 338 338 338 341 343 340 340 342 343 344 345 347 346 346 347 352 351 356 355 355 354 356 355 355 356 356 357 358
312 315 314 310 312 318 310 309 317 305 302 301 309 303 294 295 295 298 302 305 306 308 307 315 316 320 320 324 326 327 327 329 331 335 340 342 341 341 340 341 339 339 341 342 345 346 346 349 350 348 350 350 353 353 353 353 354 353 354 354 355 356 356
311 311 310 302 307 314 316 316 311 315 309 305 302 303 305 303 296 296 299 303 299 312 314 316 319 321 322 322 324 326 329 330 331 334 336 339 341 343 345 345 340 338 337 339 342 344 347 348 349 347 349 346 347 349 352 353 356 356 354 352 353 354 354
309 304 307 303 307 306 307 308 307 309 308 312 310 311 305 301 299 299 297 298 305 312 319 320 321 324 326 327 326 326 329 329 330 330 334 339 342 343 346 346 343 338 338 338 342 346 347 347 349 348 348 347 347 349 350 352 352 352 352 351 352 354 355
303 304 310 310 310 311 308 307 306 307 307 305 300 299 309 305 301 295 298 296 309 317 325 325 322 324 325 327 329 331 328 330 332 333 334 341 341 344 344 344 344 338 339 339 341 345 344 345 346 349 347 349 349 348 349 350 350 351 349 351 355 354 356
303 306 310 313 313 312 312 310 307 311 308 308 305 295 301 305 305 306 304 299 305 318 326 328 326 329 330 331 329 328 331 331 334 335 334 341 343 340 344 345 345 341 340 342 343 345 343 344 346 346 346 346 349 352 352 352 353 353 351 351 358 357 358
307 310 311 313 314 312 309 310 312 310 307 308 306 305 306 303 303 301 301 298 308 320 327 328 326 332 332 330 328 331 332 336 336 336 337 338 342 342 344 345 346 346 342 344 344 344 345 346 347 347 348 350 352 353 355 354 355 356 356 357 360 360 357
301 302 306 307 310 310 309 308 311 312 311 310 309 310 312 303 304 304 300 296 307 316 327 328 329 328 327 328 328 331 331 336 336 337 337 339 344 343 344 343 344 346 344 344 346 346 346 348 348 347 348 351 355 355 356 354 355 358 355 357 359 360 357
293 293 295 296 301 306 308 310 310 311 309 309 307 303 306 298 305 306 301 301 310 318 324 323 327 326 326 327 328 330 335 334 335 335 335 338 342 344 344 344 346 344 344 345 348 349 349 351 349 350 350 352 354 359 357 357 357 359 358 357 360 360 357
298 301 304 306 308 306 302 306 309 309 310 310 310 311 306 302 304 302 306 308 309 313 318 321 325 326 325 327 327 329 331 335 336 337 339 340 341 343 344 344 346 345 341 341 348 350 349 350 351 352 352 354 355 359 358 359 360 360 359 358 362 361 360
303 305 305 306 307 304 306 305 305 308 308 309 310 306 304 310 305 299 311 312 308 310 313 317 320 324 328 328 331 333 333 333 334 336 335 337 339 341 346 341 342 344 346 343 347 352 351 353 354 353 354 356 357 357 356 357 360 359 355 356 363 362 360
305 306 306 306 306 305 305 306 306 306 307 308 307 307 309 310 304 300 308 311 311 313 315 321 323 327 323 325 332 333 335 336 336 337 337 336 338 341 342 344 346 346 346 346 343 347 350 352 353 353 351 356 361 361 360 359 358 361 361 360 361 360 362
304 305 306 306 304 305 306 306 307 307 306 307 308 308 310 309 309 310 310 313 311 314 318 323 325 328 326 326 331 333 334 334 336 335 335 335 337 338 340 342 344 345 343 345 345 344 348 347 353 352 354 352 359 362 364 370 370 367 363 363 362 361 363
301 303 305 305 305 305 303 304 306 306 306 306 308 309 309 310 309 310 310 311 312 321 327 325 328 329 328 326 324 331 332 336 335 335 335 336 337 339 341 344 343 343 343 344 343 341 342 342 347 353 357 359 361 365 365 363 363 360 365 367 365 363 364
299 303 303 303 304 304 304 303 304 305 305 304 307 306 309 308 307 308 310 308 309 322 329 326 328 328 326 324 322 322 330 334 335 335 336 336 337 339 341 342 342 341 339 337 338 341 339 341 344 346 348 357 361 362 364 363 358 356 354 360 364 367 368
299 304 304 303 304 302 300 302 305 308 307 307 307 309 311 311 312 308 306 307 319 325 326 325 324 324 324 326 327 328 329 330 332 336 337 337 338 340 341 340 340 340 338 338 338 341 345 344 347 349 349 347 348 351 355 359 364 356 352 359 357 360 366
299 302 303 304 301 294 296 309 311 310 306 308 306 307 310 317 314 311 314 315 320 325 326 325 324 324 324 326 329 330 328 327 327 328 333 336 337 337 338 340 339 337 338 339 342 343 343 344 349 349 348 347 348 350 350 350 356 356 351 352 353 356 359
299 302 302 298 293 295 309 311 313 312 310 310 309 310 310 311 314 315 314 317 317 327 327 327 327 327 327 328 328 329 329 331 330 331 334 334 333 334 336 336 337 337 339 339 340 341 344 346 351 349 347 347 347 348 349 352 354 352 351 357 356 353 352
303 300 298 290 293 307 308 309 311 313 311 310 308 307 309 311 313 316 314 316 324 327 328 328 329 327 327 328 330 331 332 332 331 332 331 332 333 333 335 336 336 337 336 336 340 343 347 349 350 352 351 350 349 350 349 350 353 354 357 358 355 353 348
297 299 298 297 307 304 306 307 309 309 308 309 307 302 307 315 317 321 320 321 325 328 328 328 327 327 326 323 324 331 331 331 332 332 332 333 333 334 336 337 337 339 339 340 341 343 346 348 349 351 353 353 350 351 351 353 354 354 354 353 354 354 353
302 298 296 297 297 294 301 308 312 314 313 313 313 309 305 319 320 322 321 321 324 325 325 323 323 325 324 319 322 329 330 331 329 333 334 335 334 335 335 338 337 337 339 341 342 341 341 342 346 347 348 349 347 346 347 348 348 349 348 348 350 352 348
300 299 296 295 294 298 308 309 311 314 315 314 315 307 301 318 321 322 321 321 324 324 324 320 322 320 314 316 323 328 331 331 333 332 332 333 334 335 336 336 336 338 338 340 339 339 339 339 341 345 346 345 343 341 342 342 342 341 342 343 345 348 348
300 298 296 295 300 300 308 312 312 314 315 315 311 297 299 312 319 321 322 323 324 325 325 322 321 319 313 314 323 331 331 332 332 332 331 332 333 333 334 335 336 337 338 338 336 335 335 336 339 339 339 338 337 337 338 337 337 337 338 340 343 346 347
300 299 297 298 300 310 312 313 315 315 317 312 298 293 307 319 320 321 321 323 326 326 325 325 321 323 326 328 330 331 333 331 332 333 334 333 333 332 332 333 335 334 335 335 334 333 334 335 336 337 337 335 334 335 335 334 334 337 341 343 345 346 347
299 300 297 297 302 312 315 315 316 318 311 299 299 311 321 323 321 322 323 324 327 328 327 327 327 328 330 331 331 331 331 331 331 332 332 333 333 333 334 334 334 333 333 334 333 334 335 335 335 335 335 332 332 332 332 332 336 339 341 341 342 341 341
302 301 297 295 291 309 315 316 314 317 306 312 316 320 323 322 319 321 326 327 326 329 325 326 328 327 328 328 329 330 331 330 330 330 331 331 330 331 332 333 333 333 332 332 333 333 334 335 334 333 333 331 331 331 331 333 337 339 340 340 339 339 339
299 299 296 295 307 313 319 315 307 317 320 322 321 319 316 321 322 324 324 326 328 328 328 328 328 326 326 327 329 329 329 329 330 332 331 331 332 332 332 332 333 333 332 330 328 329 330 330 330 331 331 329 329 328 328 333 335 338 339 339 339 338 338
305 301 304 311 316 318 318 319 317 318 322 323 321 320 319 318 322 328 327 323 324 328 329 329 329 327 327 325 326 325 328 330 330 329 329 330 331 331 330 331 333 333 330 327 326 326 327 329 329 329 329 327 328 327 330 333 331 332 334 335 334 335 336
313 313 312 315 315 315 316 318 321 320 322 322 320 320 319 321 324 329 328 326 327 328 330 326 327 325 326 325 326 326 328 330 330 328 328 329 329 327 328 329 329 330 330 326 325 325 326 328 329 329 329 329 327 328 331 331 331 330 329 328 327 328 330
304 299 313 312 314 316 318 318 319 323 323 323 323 324 323 323 324 331 331 329 327 328 329 327 325 324 325 325 326 328 328 328 326 326 326 327 328 327 327 326 326 325 325 325 325 326 325 325 325 326 328 328 328 329 328 328 329 328 327 326 326 325 324
305 305 312 314 318 320 321 319 317 318 323 328 330 330 327 327 331 333 333 333 331 331 329 328 323 323 326 325 326 326 326 326 326 325 323 324 325 326 325 326 324 321 321 321 322 323 323 323 324 325 325 325 326 325 326 326 329 330 327 325 322 321 321
309 311 312 315 318 318 321 327 325 324 324 325 325 327 327 327 331 333 333 334 332 331 329 329 326 324 325 326 326 325 323 323 324 324 324 324 325 326 328 330 329 328 327 325 323 325 326 327 329 330 330 329 329 329 328 329 328 326 326 329 323 318 318
304 305 314 317 308 311 316 322 323 325 326 325 324 325 327 328 331 332 331 332 332 331 329 327 325 324 324 325 326 325 324 324 325 326 325 324 324 327 328 329 329 328 329 330 328 327 328 329 330 330 330 328 327 325 326 328 331 332 332 327 325 323 323
308 312 318 324 319 317 322 324 325 325 325 324 323 325 329 330 331 332 331 330 330 330 330 329 325 324 324 324 325 325 324 325 326 328 327 325 325 327 328 328 329 329 329 330 330 329 329 331 330 330 329 328 328 328 330 330 330 331 329 327 324 323 325
314 318 316 319 318 318 323 324 326 327 328 326 329 330 330 330 330 330 332 331 329 328 328 327 327 325 323 323 325 324 325 326 328 329 329 325 325 327 328 327 328 328 327 329 329 329 330 329 328 329 328 330 332 328 333 332 333 331 330 328 326 324 322
317 319 324 322 324 323 324 326 325 327 328 327 328 328 329 328 328 330 330 330 331 329 326 325 326 326 324 323 323 323 324 325 326 326 327 325 326 326 325 325 327 328 327 328 329 330 330 330 329 328 328 330 331 330 332 331 332 334 335 329 323 324 326
Wind_Speed
7 7 4 3 5 6 5 5 8 5 9 11 9 8 12 14 9 7 2 4 3 5 4 4 6 13 9 10 1 6 9 10 11 10 10 13 13 12 11 13 13 14 13 15 14 15 13 14 14 13 9 12 12 13 14 14 14 13 14 12 12 10 9
10 5 0 8 7 1 6 5 4 10 6 10 10 8 7 7 7 6 5 5 2 0 3 3 3 4 6 3 3 4 6 8 11 11 8 10 12 13 9 7 12 14 13 12 12 13 13 12 12 13 10 12 10 13 14 15 15 14 15 14 14 12 11
6 9 5 6 5 5 4 5 6 8 3 5 3 3 7 7 7 6 6 7 1 1 2 1 2 3 3 3 2 3 7 9 9 9 7 7 9 9 9 9 11 13 14 14 11 13 14 12 12 11 12 13 12 14 15 15 16 16 16 14 13 11 12
8 5 2 5 4 5 3 8 5 4 6 5 3 3 3 4 8 7 6 6 2 3 2 4 3 2 2 2 1 4 4 4 6 8 10 10 10 9 7 6 10 14 17 18 16 15 16 13 12 14 12 15 16 15 15 15 14 14 14 15 13 13 13
5 5 3 4 3 3 5 5 6 5 6 2 5 4 6 5 5 5 7 8 4 2 3 1 3 3 2 2 1 1 4 4 5 8 10 9 9 8 7 6 7 14 15 18 16 13 14 15 12 12 13 14 15 14 15 15 15 16 16 15 13 11 11
7 3 8 8 7 6 2 2 3 7 7 7 8 4 3 4 4 3 5 6 6 7 8 6 6 6 4 5 3 1 2 4 3 4 8 8 9 9 7 7 9 13 12 14 15 13 15 15 15 13 14 12 14 15 14 15 16 15 15 14 10 10 9
8 14 4 8 7 1 2 5 7 4 4 3 5 4 4 5 6 5 5 11 3 6 3 2 3 2 4 5 8 1 6 3 3 3 7 5 7 8 8 9 9 8 11 11 13 14 15 15 15 15 15 14 12 12 11 12 11 12 12 11 10 10 9
12 11 10 6 7 5 5 5 9 5 4 4 2 1 7 7 9 7 5 8 2 3 1 2 2 4 3 8 11 11 3 3 7 7 6 8 7 11 8 9 8 10 10 10 11 13 13 12 12 13 12 10 10 11 10 11 11 12 10 8 9 10 10
5 9 8 6 2 3 3 1 4 4 5 8 5 0 6 5 6 10 6 9 3 2 3 3 3 7 7 6 7 8 6 1 3 3 5 6 6 7 7 9 10 10 10 10 9 11 11 10 11 13 13 11 10 10 9 11 9 10 10 8 8 9 9
6 6 5 4 5 4 4 6 4 2 4 2 1 3 3 1 5 10 7 8 7 6 3 3 5 8 3 4 5 4 6 4 4 3 5 6 6 5 7 5 5 5 9 7 9 10 9 9 10 10 10 10 10 8 10 8 9 9 9 8 8 9 9
7 8 8 9 9 7 8 6 7 5 5 4 4 4 2 3 3 6 2 2 7 8 2 3 5 1 3 2 5 7 4 2 4 3 3 5 5 4 4 6 3 1 4 14 9 10 10 10 10 9 9 9 9 9 10 8 7 8 8 8 8 9 9
13 9 9 12 16 10 7 10 9 11 8 6 11 7 4 6 3 7 4 1 5 11 3 7 1 5 5 3 2 4 3 3 4 4 4 6 6 6 4 3 4 4 5 11 12 8 10 8 9 9 9 8 10 10 11 11 10 9 10 10 9 9 9
12 12 11 9 9 9 6 5 10 12 9 9 10 9 7 6 6 7 4 2 3 4 7 6 6 5 8 14 5 2 3 3 4 3 5 8 8 7 6 6 6 6 8 2 9 11 9 9 9 9 9 7 6 8 9 10 10 10 9 9 9 10 9
13 12 10 12 13 7 3 9 11 11 11 10 10 9 8 10 9 9 6 4 6 6 3 4 1 4 4 6 16 5 2 4 3 4 5 6 6 8 8 8 7 3 5 5 4 6 8 11 12 12 9 10 8 8 8 5 5 7 10 8 9 9 9
10 12 11 14 16 14 10 11 13 9 8 10 10 10 10 11 10 9 5 6 5 6 9 7 3 2 4 4 11 8 1 2 4 4 5 5 6 7 7 5 4 6 4 5 8 9 8 10 11 5 8 10 10 8 6 5 5 1 2 7 8 9 9
9 10 12 12 14 11 12 11 8 5 8 9 7 8 6 8 9 8 7 8 4 6 7 5 1 0 4 3 2 10 9 2 4 4 5 5 6 7 6 5 5 6 5 2 5 7 11 8 6 9 12 5 4 6 7 7 5 3 1 5 3 4 7
9 10 10 13 7 6 9 6 2 10 12 7 6 7 9 8 4 4 6 5 6 5 5 3 2 2 1 2 3 3 8 9 8 4 3 4 4 4 5 5 4 4 6 7 6 2 1 2 1 1 3 11 10 9 6 2 5 5 7 7 4 3 3
9 13 14 10 9 8 4 6 4 5 9 9 9 8 7 3 6 6 5 6 2 6 5 3 4 1 3 5 4 5 6 7 11 10 7 6 7 8 7 2 1 5 4 5 6 6 3 4 5 8 9 5 4 5 8 9 4 8 11 12 9 6 4
8 9 11 11 12 7 7 4 4 8 7 6 8 9 10 8 6 9 9 6 6 5 3 3 1 3 4 8 8 7 5 4 4 6 4 6 6 7 6 3 2 2 3 5 6 8 5 7 6 7 6 6 6 3 3 9 9 9 10 8 10 9 3
8 10 8 8 9 7 6 3 1 0 4 8 9 10 10 9 6 9 10 1 6 7 5 5 6 6 7 7 6 2 4 5 5 5 5 5 5 5 6 4 3 2 2 2 2 5 6 5 4 5 8 9 7 6 6 7 7 3 3 3 5 7 9
9 7 8 10 10 12 9 6 5 2 4 7 6 7 5 9 9 9 7 4 6 7 9 10 8 6 4 4 1 2 6 6 5 3 3 2 2 3 4 5 4 3 2 2 2 2 6 9 8 6 6 9 8 7 6 3 3 6 5 5 3 2 8
8 9 9 8 8 9 2 6 7 5 2 2 6 6 4 9 8 7 2 3 5 6 10 9 7 5 3 2 3 3 2 3 3 1 2 3 3 3 3 3 4 1 3 1 4 4 7 9 8 7 8 7 8 7 6 4 5 6 7 7 6 8 11
9 8 9 7 7 6 6 2 7 3 3 2 5 5 4 6 7 8 7 6 7 5 6 5 3 4 2 2 2 3 1 1 0 1 1 3 4 5 6 5 2 4 4 2 6 7 8 9 8 8 9 9 8 8 7 7 7 7 7 7 7 7 9
8 10 9 8 6 7 7 5 3 7 6 5 5 7 1 2 7 5 7 6 7 5 6 6 4 2 3 4 1 5 2 4 2 2 3 4 5 6 6 7 8 6 4 5 8 9 9 8 9 8 8 9 9 8 8 8 9 8 7 6 5 6 9
10 11 9 7 9 3 4 5 3 2 5 5 6 5 3 3 4 4 3 4 7 6 5 6 5 4 3 2 4 5 5 6 4 4 4 5 6 6 6 6 5 5 5 6 8 9 8 8 8 7 6 8 9 9 10 11 11 9 7 8 9 10 9
10 9 9 10 3 3 3 4 6 8 3 5 5 3 4 0 2 1 3 4 7 5 5 3 2 3 1 5 6 7 5 5 6 7 8 8 8 7 6 5 3 4 6 8 10 10 9 8 9 8 8 11 9 9 11 13 10 9 11 11 10 11 11
8 6 9 6 6 5 5 4 3 6 4 3 1 1 3 4 7 5 8 8 4 2 2 3 2 6 6 5 3 5 5 8 8 8 9 8 7 6 6 6 4 6 9 10 11 10 9 8 9 9 11 12 10 10 11 9 8 9 8 10 12 12 12
5 6 6 2 5 1 4 6 4 3 3 3 4 3 4 1 3 4 9 7 2 1 3 6 5 5 7 6 7 7 8 8 7 6 8 6 7 6 8 7 6 6 6 9 10 11 10 9 8 8 11 12 10 11 10 6 7 8 10 11 12 12 12
6 5 3 6 3 2 4 1 2 3 2 3 2 3 5 6 4 6 9 6 3 3 7 7 8 9 9 10 9 6 2 7 9 10 10 8 7 6 8 6 6 6 6 11 12 13 10 10 9 8 9 12 10 10 7 6 7 8 9 11 11 10 10
6 10 9 0 5 5 2 2 5 5 5 7 6 5 5 5 4 5 5 13 7 5 6 9 8 9 10 8 7 10 8 7 10 10 11 10 9 8 7 7 8 9 7 9 12 12 11 10 9 8 9 10 11 9 8 8 9 9 10 10 9 9 8
4 4 3 2 4 2 2 2 3 2 0 2 3 6 5 4 3 4 3 10 12 8 7 10 12 11 11 10 8 6 9 10 12 12 11 10 9 8 6 6 8 8 9 9 9 8 9 10 10 10 10 10 10 10 9 9 10 10 10 9 9 7 7
9 7 3 5 4 1 2 4 4 6 4 5 3 2 4 4 4 4 4 8 12 10 8 10 12 12 11 12 9 7 6 6 8 10 11 12 11 9 7 8 9 11 10 8 7 9 7 9 9 9 9 9 10 11 11 10 6 6 6 6 7 8 9
6 9 11 6 4 6 4 7 5 4 4 4 3 3 3 3 6 7 6 4 8 9 9 9 11 12 12 11 10 10 10 9 8 8 10 11 11 10 8 6 8 6 4 7 10 10 7 7 6 7 7 8 8 8 7 6 7 6 6 6 7 10 8
8 5 4 4 1 0 4 1 3 2 3 2 3 2 2 2 7 5 6 6 7 10 11 11 11 12 12 12 11 12 11 10 10 9 9 11 13 10 9 8 5 4 6 7 8 9 8 7 7 7 7 7 7 8 6 6 4 4 4 4 5 7 7
6 5 5 3 3 2 2 3 2 3 3 3 3 3 4 5 6 5 7 8 9 10 10 11 14 13 12 13 13 12 10 10 9 9 11 11 11 10 8 9 8 7 6 4 4 6 6 4 7 8 7 8 7 8 6 7 7 8 8 7 7 8 8
1 9 2 1 4 3 4 5 5 5 5 3 3 4 4 6 5 4 2 5 8 8 8 9 11 14 14 13 12 12 12 11 10 8 8 12 13 10 8 8 8 8 6 5 4 6 6 7 8 8 10 8 6 8 5 5 6 7 7 6 6 7 8
1 4 8 4 3 7 4 6 6 6 5 6 5 4 2 4 4 4 5 6 6 8 9 10 10 11 13 14 13 12 12 12 11 11 10 11 13 11 9 9 8 8 8 7 4 5 5 7 7 9 10 9 10 10 9 10 11 9 7 6 9 9 7
Wind_Direction
267 243 8 295 24 279 49 317 268 279 6 302 306 295 286 288 280 275 60 229 203 104 172 17 49 72 83 318 287 184 170 183 186 202 208 214 208 205 201 176 180 174 179 188 182 180 187 179 187 184 178 160 167 158 170 175 179 183 182 185 181 187 189
142 63 42 284 257 348 309 266 316 347 340 310 290 290 318 300 288 291 327 287 49 30 285 337 340 103 118 155 240 197 191 189 191 201 216 224 216 205 218 206 171 169 171 189 180 175 182 190 191 176 174 161 160 158 170 179 179 185 184 185 185 187 188
164 162 183 229 217 121 234 288 36 290 35 306 356 329 290 304 281 299 255 261 91 52 168 195 352 349 137 142 242 258 201 200 207 198 209 231 236 212 208 227 179 171 170 182 194 173 178 193 176 190 172 164 166 165 178 182 184 188 187 186 187 186 189
68 326 35 316 103 132 338 333 253 243 240 238 245 254 297 276 281 281 293 286 248 93 38 12 357 341 329 320 219 177 176 233 224 217 211 216 234 235 222 255 189 175 178 185 194 178 173 187 181 182 182 177 180 176 180 183 185 187 192 190 187 190 190
323 266 128 320 341 337 360 326 317 294 270 281 269 187 230 250 271 288 293 289 140 155 170 123 239 308 334 301 165 219 259 205 229 241 224 200 220 239 249 254 230 181 182 187 185 184 176 175 182 178 184 180 183 181 182 184 185 188 195 192 187 192 191
205 240 80 350 50 97 334 318 208 234 263 319 267 274 199 247 268 291 291 273 67 35 330 25 0 5 345 322 322 224 194 268 246 300 262 200 184 227 247 252 255 187 191 185 182 185 187 177 181 177 189 184 184 186 182 188 185 191 195 195 180 184 195
317 321 304 207 159 273 253 240 268 274 313 191 294 278 290 273 252 291 281 287 144 225 210 65 348 17 353 346 324 338 132 231 242 166 307 277 161 229 241 245 273 224 189 194 181 182 189 181 184 180 183 189 188 184 181 179 185 189 197 192 171 175 192
295 277 270 75 103 134 274 264 340 332 282 48 140 335 310 317 304 287 310 284 66 188 192 165 68 36 7 41 18 337 24 195 189 178 183 239 201 193 211 253 263 275 200 194 182 182 189 186 183 179 182 198 184 181 175 175 183 182 197 184 168 171 183
275 259 252 183 89 312 272 291 162 282 318 301 306 360 26 314 310 318 307 283 79 179 216 150 120 78 46 29 52 325 340 134 200 246 213 213 197 197 193 218 243 279 232 198 189 181 191 187 185 184 181 185 182 177 175 174 182 179 191 184 169 168 179
298 280 289 338 4 342 350 289 289 211 300 336 249 221 69 356 303 334 317 332 350 348 242 173 101 105 101 171 121 287 240 169 192 236 268 251 210 203 199 232 302 331 308 236 188 184 188 188 188 186 183 178 176 175 179 179 177 176 182 183 171 169 177
279 290 308 299 272 249 236 243 267 258 233 199 134 113 176 202 239 277 58 238 281 252 244 347 64 94 190 263 137 189 218 140 142 181 252 270 234 208 179 159 192 335 316 300 218 187 192 191 191 189 184 175 177 169 173 175 177 180 178 178 170 173 175
253 255 240 252 243 262 336 313 282 279 278 153 156 171 243 168 173 275 150 38 345 325 318 126 283 308 303 285 229 161 154 153 178 178 196 269 247 209 172 151 232 212 214 247 271 210 198 193 193 185 182 183 180 176 177 178 178 188 184 183 169 176 177
296 272 271 281 288 280 264 250 287 292 280 257 245 250 251 183 229 267 309 353 268 290 310 12 14 24 14 311 276 221 149 150 170 202 203 201 216 222 215 188 192 218 239 230 262 260 211 198 191 188 185 191 185 182 178 174 179 182 180 180 174 178 179
299 299 305 301 304 324 175 230 246 252 270 269 254 250 240 216 230 248 255 235 284 276 295 82 172 121 125 317 309 315 217 154 160 190 208 225 227 223 220 206 202 188 329 338 318 326 308 233 185 189 189 188 191 191 173 140 159 171 176 183 179 179 175
282 278 275 267 258 242 250 237 229 251 272 268 256 259 260 270 247 240 238 279 268 51 54 66 322 121 116 64 313 301 268 207 176 193 202 224 220 229 222 211 177 132 183 310 342 336 325 342 336 288 197 176 184 180 151 162 158 149 229 185 182 176 178
276 268 260 255 251 253 257 277 291 247 231 244 243 255 271 268 271 269 273 268 254 117 109 111 219 211 107 112 172 294 289 316 272 224 217 213 216 221 212 206 187 159 135 69 357 349 327 327 338 319 311 309 166 159 161 152 144 124 337 278 145 190 162
274 264 263 275 291 342 311 270 12 346 318 313 279 234 225 238 306 288 266 283 76 104 121 146 235 293 354 114 186 281 331 339 288 293 289 262 273 279 243 229 211 165 144 167 168 51 77 321 82 176 331 326 345 354 341 63 97 145 196 229 189 188 130
292 305 300 325 339 294 287 49 346 339 288 310 310 307 316 116 232 285 293 293 147 137 145 176 250 239 40 9 14 26 31 317 336 330 334 6 19 11 347 341 169 159 134 129 108 100 109 239 205 146 141 135 335 337 299 298 268 179 191 199 182 195 187
285 295 309 292 255 259 77 180 125 235 261 290 298 295 294 300 252 238 233 225 240 111 119 154 113 57 33 29 27 23 298 276 241 261 335 25 15 16 11 6 186 123 141 125 120 133 146 228 235 132 118 134 119 148 270 249 211 207 217 191 164 146 247
256 253 248 273 285 121 198 227 227 120 243 258 261 262 270 271 303 350 313 6 100 113 107 75 73 67 84 57 355 2 22 28 7 13 32 29 26 20 6 10 11 157 156 306 263 155 178 171 105 113 133 147 151 151 187 252 267 207 157 95 84 132 175
285 276 264 266 299 289 274 291 271 188 16 344 345 322 319 29 31 21 16 32 68 72 64 53 52 40 27 64 342 323 52 6 355 24 34 51 35 24 37 21 73 58 87 153 249 344 80 87 82 71 90 109 120 129 143 127 66 61 70 70 95 179 134
238 258 261 256 255 261 25 100 114 109 71 351 317 5 287 56 49 68 71 45 91 77 71 68 62 36 4 285 162 121 149 168 212 230 111 85 68 74 46 67 105 105 124 123 43 11 66 73 75 78 73 81 85 86 81 70 60 64 61 64 49 59 83
291 268 263 258 277 292 66 94 66 66 261 16 4 317 268 34 32 39 43 49 87 80 88 98 55 66 80 280 141 133 178 79 268 128 63 71 71 50 38 24 58 154 155 125 98 60 39 58 46 63 78 72 73 73 67 64 51 47 44 48 44 55 87
252 281 273 256 219 268 122 94 137 53 36 30 313 282 1 340 39 24 38 43 61 96 113 128 140 175 214 240 347 98 97 86 66 82 96 100 78 53 46 36 38 35 55 89 87 87 80 57 53 56 71 87 88 81 73 65 57 51 43 41 57 66 76
226 212 246 276 279 83 82 68 65 28 36 25 277 280 59 343 18 9 22 54 106 126 151 168 167 186 226 156 128 136 145 128 115 79 73 79 74 75 51 36 48 59 56 76 85 87 80 78 72 60 67 81 79 80 82 76 68 58 48 61 75 91 96
261 245 236 235 243 11 284 81 54 55 302 253 334 51 192 133 281 78 274 64 112 157 171 141 131 178 271 83 150 155 140 113 106 92 85 82 87 80 87 80 70 92 91 89 91 88 88 86 87 80 81 81 77 79 81 79 70 67 71 76 76 73 82
252 252 272 269 254 88 6 128 153 47 310 50 258 246 161 341 329 336 47 85 136 138 126 110 78 62 47 334 30 44 77 71 63 73 74 78 91 106 99 79 68 102 109 102 90 84 78 73 74 82 87 83 79 76 72 66 64 72 69 78 79 81 84
291 251 251 353 28 268 44 2 340 154 78 11 343 4 292 180 284 26 83 82 235 137 121 123 97 122 125 88 53 72 88 94 100 79 78 73 80 99 101 95 80 71 72 80 79 72 69 69 72 79 84 82 79 77 67 62 72 81 82 81 83 86 90
293 302 38 188 224 343 306 304 33 330 98 204 293 291 290 311 24 56 95 147 262 243 131 126 134 130 127 105 97 72 5 123 117 106 99 92 97 97 87 88 80 58 73 90 89 89 83 82 78 76 80 87 80 76 75 70 70 77 79 81 80 79 81
266 273 289 296 204 234 291 325 58 37 3 334 319 325 326 358 17 50 106 132 181 212 151 126 135 128 130 123 108 133 150 128 112 112 112 114 108 92 90 93 94 98 76 74 85 89 86 84 80 75 75 85 91 85 79 68 65 66 75 81 84 88 92
264 250 118 320 357 8 92 340 323 105 202 301 358 339 340 327 7 81 64 122 164 184 164 135 133 130 140 133 121 120 133 143 135 123 108 93 88 87 81 91 99 87 73 67 61 53 72 86 89 90 93 92 92 89 78 76 75 73 71 79 82 79 77
227 247 186 216 241 96 291 315 328 333 31 51 30 10 324 351 72 70 76 110 134 160 161 141 133 132 135 131 132 120 102 102 103 110 109 104 100 93 67 55 72 85 91 93 86 91 91 95 94 96 91 87 88 96 99 93 74 84 104 103 99 93 87
273 280 265 220 205 243 63 69 44 360 2 358 357 337 350 322 84 95 80 108 141 150 148 143 134 129 127 128 126 117 114 108 103 106 115 109 97 90 86 44 31 40 98 117 116 117 105 94 90 87 90 94 100 101 104 113 125 105 80 86 93 96 94
246 265 77 54 195 53 333 13 343 11 33 345 341 339 291 52 124 134 124 117 135 146 146 144 134 128 134 132 128 120 116 106 103 98 98 98 96 92 90 88 78 49 25 54 73 83 86 94 98 97 92 88 91 99 107 116 119 117 130 111 88 78 85
331 9 143 125 151 199 98 162 159 76 359 331 298 17 39 70 137 167 144 146 147 156 161 149 140 138 136 135 136 124 121 118 113 101 102 107 106 105 109 110 115 102 91 100 115 111 118 123 106 97 91 89 84 76 65 68 67 71 72 71 73 74 67
357 351 28 128 285 132 103 86 72 61 27 342 76 80 96 110 145 167 119 147 153 162 155 152 149 138 138 140 130 117 111 109 101 101 118 117 108 108 111 105 102 98 87 53 54 72 76 81 83 88 91 92 103 99 86 88 99 96 85 82 87 90 91
45 86 311 80 58 99 103 100 79 67 56 22 37 43 21 137 153 154 132 140 148 154 146 141 139 131 135 141 134 123 116 110 106 102 95 108 118 122 137 138 140 135 132 135 116 95 93 89 85 87 81 69 58 53 54 57 52 49 56 82 94 93 87